Regional Weather Roundup
Issued by NWS

Home | Current Version | Previous Version | Graphics & Text | Print | Product List | Glossary On
Versions: 1 2 3 4 5 6 7 8 9 10 11 12 13 14 15 16 17 18 19 20 21 22 23 24 25 26 27
000
ASUS45 KSLC 240010
RWRUT

UTAH REGIONAL WEATHER ROUNDUP
NATIONAL WEATHER SERVICE SALT LAKE CITY UT
600 PM MDT THU OCT 23 2014

UTZ001>011-023>025-240100-

NORTHERN UTAH

CITY           SKY/WX    TMP DP  RH WIND       PRES   REMARKS
BRIGHAM CITY   CLOUDY    65  31  28 CALM      30.08R
HILL AFB       MOCLDY    64  37  36 N6        30.08S
LOGAN          CLEAR     60  39  45 N8        30.07S
OGDEN          MOCLDY    62  37  39 N5        30.06S
PROVO AIRPORT  MOCLDY    66  39  37 VRB5      30.08S
SALT LAKE CITY MOCLDY    61  39  44 W6        30.06R
VERNAL         CLEAR     61  35  37 CALM      30.15S
WENDOVER       CLOUDY    57  30  35 CALM      30.06S
HEBER CITY     PTCLDY    64  27  24 S5        30.13R
WEST JORDAN    CLEAR     63  41  45 NW3       30.08R

$$

UTZ012>022-026-027-240100-

SOUTHERN/CENTRAL UTAH

CITY           SKY/WX    TMP DP  RH WIND       PRES   REMARKS
BLANDING       CLEAR     65  32  29 SE5       30.31R
BRYCE CANYON   PTCLDY    57  29  34 SE7       30.32R
CEDAR CITY     PTCLDY    67  27  22 SW9       30.17R
DELTA          MOCLDY    72  24  16 S17       30.08S
HANKSVILLE       N/A     72  30  21 SE12      30.13R
MILFORD        MOCLDY    71  27  19 S17       30.12R
MOAB/CYNLANDS  CLEAR     72  35  25 N3        30.11S
PRICE          CLEAR     63  34  33 E7        30.20S
ST GEORGE      PTCLDY    77  34  20 S3        30.07S

$$

REGIONAL REPORTS     COLORADO/ARIZONA

CITY           SKY/WX    TMP DP  RH WIND       PRES   REMARKS
CRAIG, CO      PTCLDY    59  37  44 CALM      30.18R
GRAND JUNCTION CLEAR     64  39  39 W5        30.17R
RIFLE          CLEAR     63  41  44 S5        30.20R
MONTROSE       CLEAR     69  35  28 W3        30.23R
CORTEZ         CLEAR     65  32  29 MISG      30.26R
PAGE, AZ       MOCLDY    73  32  22 CALM      30.13S
GRAND CANYON   MOCLDY    69  31  24 CALM      30.28S
KINGMAN        CLEAR     80  36  20 SW10      30.08S
FLAGSTAFF      PTCLDY    63  32  31 SW7       30.31S

$$

REGIONAL REPORTS    NEVADA/IDAHO/WYOMING

CITY           SKY/WX    TMP DP  RH WIND       PRES   REMARKS
LAS VEGAS, NV  PTCLDY    85  36  17 CALM      29.95S
ELY            CLOUDY    64  23  21 S7        30.16R
ELKO           MOCLDY    69  21  16 NW6       30.03S
POCATELLO, ID  MOCLDY    60  34  37 W5        30.07S
BURLEY         CLOUDY    59  38  45 NW5       30.06R
EVANSTON, WY   MOCLDY    59  25  27 W12       30.18R
ROCK SPRINGS   CLEAR     58  28  32 SW8       30.17R
KEMMERER       PTCLDY    54  21  28 W15G22    30.18R

$$



USA.gov is the U.S. government's official web portal to all federal, state and local government web resources and services.